Location: Mountain Grove
(34.0887°N, 86.6172°W)
Time: 00:35:26
(UTC+00:00)

Cosmos 1867 - Pass Details

Date: 14 July 2020
Orbit: 778 x 798 km, 65.0° (Epoch: 12 August)

Event Time Altitude Azimuth Distance (km) Brightness Sun altitude
Exits shadow 08:50:01 32° 184° (S) 1,335 4.3 -20.1°
Maximum altitude 08:52:28 63° 115° (ESE) 882 3.8 -19.8°
Drops below altitude 10° 08:57:50 10° 35° (NE) 2,364 7.2 -19.0°
Sets 09:00:17 0° 33° (NNE) 3,300 8.3 -18.6°
